Regional Weather Roundup
Issued by NWS Newport/Morehead, NC

Current Version | Previous Version | Graphics & Text | Print | Product List | Glossary Off
Versions: 1 2 3 4 5 6 7 8 9 10 11 12 13 14 15 16 17 18 19 20 21 22 23 24 25 26 27 28 29 30 31 32 33 34 35 36 37 38 39 40 41 42 43 44 45 46 47 48 49 50

000
ASUS42 KMHX 211224
RWRMHX
WEATHER ROUNDUP FOR EASTERN NORTH CAROLINA
NATIONAL WEATHER SERVICE NEWPORT/MOREHEAD CITY NC
700 AM EST SAT JAN 21 2017

NOTE: "FAIR" INDICATES FEW OR NO CLOUDS BELOW 12,000 FEET
WITH NO SIGNIFICANT WEATHER AND/OR OBSTRUCTIONS TO VISIBILITY

NCZ015>017-031-032-045>047-102-103-211300-
NORTH COAST

CITY           SKY/WX    TMP DP  RH WIND       PRES   REMARKS
EDENTON        FOG       49  49 100 CALM      29.95R VSB 1/2
ELIZABETH CITY FOG       48  48 100 E3        29.95R VSB 3/4
KITTY HAWK     NOT AVBL
MANTEO         FOG       48  48 100 NE3       29.96R VSB 1/2

$$

NCZ045>047-081-094-103-104-211300-
CENTRAL COAST

CITY           SKY/WX    TMP DP  RH WIND       PRES   REMARKS
FRISCO         FOG       51  49  92 VRB6      29.94S VSB 1/2

$$

NCZ095-097-098-100-101-211300-
SOUTHERN COAST

CITY           SKY/WX    TMP DP  RH WIND       PRES   REMARKS
BEAUFORT       CLOUDY    49  48  97 NE6       29.93S FOG
CEDAR ISLAND   NOT AVBL
JACKSONVILLE   FOG       51  51 100 E5        29.92R VSB 1/4
PINEY ISLAND   FOG      N/A N/A N/A E7        29.94  VSB 1/2
WILMINGTON     CLOUDY    53  53 100 CALM      29.91R FOG


$$

NCZ011>013-027>030-043-044-078>080-089-090>093-098-211300-
COASTAL PLAIN

CITY           SKY/WX    TMP DP  RH WIND       PRES   REMARKS
AHOSKIE        FOG       46  46  98 CALM      29.94R VSB 1/2
CLINTON        FOG       49  49 100 CALM      29.91F VSB 1/2
ELIZABETHTOWN  FOG       52  52 100 CALM      29.89F VSB 1/4
GOLDSBORO      FOG       50  50 100 E6        29.90F VSB 3/4
GREENVILLE     CLOUDY    48  48 100 CALM      29.96R FOG
HAVELOCK       FOG       50  49  96 E5        29.93S VSB 1
KENANSVILLE    FOG       50  50 100 CALM      29.92R VSB 1/4
KINSTON        FOG       50  50 100 CALM      29.94S VSB 3/4
NEW BERN       CLOUDY    49  49 100 E3        29.94R FOG
RICHLANDS      FOG       48  48 100 NE5       29.92R VSB 1/4
ROCKY MOUNT    FOG       48  48 100 CALM      29.94R VSB 3/4
WASHINGTON     FOG       48  48  99 CALM        N/A  VSB 1
WHITEVILLE     CLOUDY    53  52  97 CALM      29.89S FOG

$$

AMZ130-135-150-152-154-156-158-170-250-252-270-ANZ085-086-088-633-658-670-211300-
MARINE OBSERVATIONS

STATION/POSITION TIME  TEMP    WIND        PRES    WAVE   SWELL
                       AIR SEA DIR/SP/G            HT/PER HT/PER
                 (UTC) (F)     (DEG/KT/KT) (MB)    (FT/S) (FT/S)
CHESAPEAKE LIGHT NOT AVBL
64 E VA BEACH    1150   52 57   30/ 10/ 12 1013.1    4/11   3/11
DUCK             1200   47 45  360/  2/  4 1013.6
2 E DUCK         1200      45                N/A     3/13   2/13
OREGON INLET     1200   48 48  340/  2/  5 1014.1
13E OREGON INLT  NOT AVBL
HATTERAS CG      1200   50 55   40/  5/ 10 1013.4
DIAMOND BUOY     1150   58 74   10/ 10/ 14 1013.5    4/11   3/11
CAPE LOOKOUT     1200   52      10/  6/  7 1013.1
BEAUFORT LAB     1200   49 51   40/  4/  8 1012.3
30 SE NEW RVR IN 1208   56 63   80/ 10/ 12 1012.9
30 SE NEW RVR IN 1213      62                N/A     4/13   2/13
27 SE WRIGHTSVLE 1208   66 72   60/  4/  8 1012.4
5 SE WRIGHTSVLE  1208   55     350/  4/  6 1012.7
225 S CAPE HAT   1150   72 70  310/ 10/ 12 1013.6    6/11   5/11
41 SE CHARLESTON 1150   70 67  240/ 12/ 14 1011.7    2/13   2/13

$$




USA.gov is the U.S. government's official web portal to all federal, state and local government web resources and services.